Quillayute, WA
on Thursday, February 28, 2013

Thursday
Previous Day Next Day
Daily Summary
 ActualAverageRecord
Temperature
Mean Temperature °F 43°F  
Max Temperature 51°F 50°F 72°F (1968)
Min Temperature 42°F 35°F 15°F (1971)
Degree Days
Heating Degree Days 18 22  
Month to date heating degree days 585 640  
Since 1 July heating degree days 3693 3845  
Cooling Degree Days 0 0  
Month to date cooling degree days 0 0  
Year to date cooling degree days 0 0  
Moisture
Dew Point 44°F   
Average Humidity 86    
Maximum Humidity 89    
Minimum Humidity 82    
Precipitation
Precipitation 1.45 in 0.35 in 2.37 in (1994)
Month to date precipitation 11.77 10.35  
Year to date precipitation 22.11 24.96  
Wind
Wind Speed 8 mph   
Max Wind Speed 17 mph   
Max Gust Speed 26 mph   
Visibility 2 miles   
Events Fog , Rain   

Key: T is trace of precipitation, MM is missing value
Source: NWS Daily Summary
Time(PST)TemperatureDew PointHumidity Pressure Visibility Wind DirectionWind SpeedGust SpeedPrecipitationEvents Conditions
12:07 AM 42.8°F 37.4°F 81% 30.20 in 7.0 miles East 5.8 mph - N/A   Overcast
12:53 AM 42.1°F 37.0°F 82% 30.18 in 7.0 miles East 6.9 mph - N/A   Mostly Cloudy
1:32 AM 42.8°F 37.4°F 81% 30.16 in 7.0 miles East 4.6 mph - N/A   Overcast
1:53 AM 42.1°F 37.0°F 82% 30.17 in 7.0 miles East 4.6 mph - N/A   Overcast
2:53 AM 42.1°F 37.0°F 82% 30.17 in 6.0 miles East 3.5 mph - 0.00 in Rain Light Rain
3:53 AM 42.1°F 37.9°F 85% 30.15 in 6.0 miles East 3.5 mph - 0.02 in Rain Light Rain
4:53 AM 43.0°F 37.9°F 82% 30.13 in 6.0 miles East 3.5 mph - 0.00 in Rain Light Rain
5:17 AM 42.8°F 37.4°F 81% 30.12 in 6.0 miles ENE 4.6 mph - 0.00 in   Haze
5:53 AM 43.0°F 37.9°F 82% 30.12 in 5.0 miles NE 4.6 mph - 0.00 in   Haze
6:53 AM 43.0°F 39.0°F 86% 30.11 in 2.5 miles East 4.6 mph - 0.01 in Rain Light Rain
7:07 AM 42.8°F 39.2°F 87% 30.11 in 1.5 miles East 5.8 mph - 0.00 in Rain Light Rain
7:29 AM 42.8°F 39.2°F 87% 30.11 in 1.0 miles East 6.9 mph - 0.02 in Rain Light Rain
7:36 AM 44.6°F 39.2°F 81% 30.11 in 0.8 miles East 5.8 mph - 0.03 in Rain Light Rain
7:49 AM 44.6°F 39.2°F 81% 30.11 in 1.0 miles East 5.8 mph - 0.04 in Rain Light Rain
7:53 AM 44.1°F 39.9°F 85% 30.12 in 1.0 miles East 5.8 mph - 0.05 in Rain Light Rain
8:04 AM 44.6°F 39.2°F 81% 30.11 in 0.8 miles East 5.8 mph - 0.02 in Rain Rain
8:13 AM 44.6°F 39.2°F 81% 30.11 in 1.0 miles ENE 6.9 mph - 0.03 in Rain Light Rain
8:37 AM 44.6°F 39.2°F 81% 30.11 in 1.0 miles Calm Calm - 0.08 in Rain Rain
8:53 AM 44.1°F 41.0°F 89% 30.12 in 1.2 miles East 4.6 mph - 0.10 in Rain Light Rain
9:08 AM 44.6°F 41.0°F 87% 30.12 in 1.5 miles ENE 3.5 mph - 0.02 in Rain Light Rain
9:21 AM 46.4°F 42.8°F 87% 30.12 in 1.8 miles East 4.6 mph - 0.04 in Rain Light Rain
9:40 AM 46.4°F 42.8°F 87% 30.12 in 1.0 miles SE 8.1 mph - 0.07 in Rain Light Rain
9:53 AM 48.0°F 44.1°F 86% 30.12 in 1.8 miles SE 8.1 mph 16.1 mph 0.08 in Rain Light Rain
10:13 AM 48.2°F 44.6°F 87% 30.13 in 1.0 miles SSE 6.9 mph - 0.03 in Rain Light Rain
10:33 AM 48.2°F 44.6°F 87% 30.13 in 0.8 miles SSE 8.1 mph - 0.05 in Rain Light Rain
10:53 AM 48.9°F 45.0°F 86% 30.16 in 0.8 miles South 5.8 mph 17.3 mph 0.08 in Rain Light Rain
11:22 AM 48.2°F 46.4°F 93% 30.16 in 1.2 miles Variable 5.8 mph - 0.05 in Rain Light Rain
11:31 AM 50.0°F 46.4°F 87% 30.16 in 2.0 miles Variable 6.9 mph - 0.06 in Rain Light Rain
11:45 AM 50.0°F 46.4°F 87% 30.17 in 1.2 miles SSE 6.9 mph - 0.06 in Rain Light Rain
11:53 AM 50.0°F 46.0°F 86% 30.18 in 1.0 miles SSE 8.1 mph - 0.06 in   Overcast
12:00 PM 50.0°F 46.4°F 87% 30.18 in 0.5 miles SE 5.8 mph - 0.00 in Fog , Rain Light Rain
12:53 PM 50.0°F 46.0°F 86% 30.18 in 1.0 miles Variable 6.9 mph - 0.01 in Rain Light Rain
1:26 PM 50.0°F 46.4°F 87% 30.18 in 2.0 miles Variable 5.8 mph - 0.02 in Rain Light Rain
1:48 PM 51.8°F 46.4°F 82% 30.19 in 1.8 miles South 5.8 mph - N/A Rain Light Rain
1:53 PM 51.1°F 46.9°F 86% 30.19 in 2.5 miles Variable 5.8 mph - 0.04 in Rain Light Rain
2:31 PM 50.0°F 46.4°F 87% 30.19 in 1.2 miles Variable 5.8 mph - 0.00 in Rain Light Rain
2:53 PM 50.0°F 46.9°F 89% 30.20 in 1.2 miles Variable 5.8 mph - 0.01 in Rain Light Rain
3:04 PM 50.0°F 46.4°F 87% 30.19 in 0.5 miles SSE 8.1 mph - 0.00 in Fog , Rain Light Rain
3:53 PM 50.0°F 46.9°F 89% 30.21 in 0.8 miles South 5.8 mph - 0.04 in Rain Light Rain
4:24 PM 50.0°F 46.4°F 87% 30.20 in 0.2 miles Variable 5.8 mph - 0.02 in Fog , Rain Light Rain
4:33 PM 50.0°F 46.4°F 87% 30.21 in 0.5 miles South 6.9 mph - 0.02 in Fog , Rain Light Rain
4:53 PM 50.0°F 46.4°F 87% 30.20 in 0.5 miles SSE 5.8 mph - N/A Fog , Rain Light Rain
5:19 PM 50.0°F 46.4°F 87% 30.20 in 0.5 miles South 8.1 mph - 0.01 in Fog Fog
5:53 PM 50.0°F 46.9°F 89% 30.21 in 0.2 miles South 10.4 mph 17.3 mph 0.02 in Fog Fog
5:58 PM 50.0°F 46.4°F 87% 30.21 in 0.5 miles South 9.2 mph 18.4 mph 0.00 in Fog , Rain Light Rain
6:46 PM 50.0°F 46.4°F 87% 30.22 in 1.0 miles South 10.4 mph 19.6 mph 0.07 in Rain Light Rain
6:53 PM 50.0°F 46.9°F 89% 30.23 in 1.8 miles South 10.4 mph 21.9 mph 0.07 in Rain Light Rain
7:08 PM 50.0°F 46.4°F 87% 30.22 in 1.0 miles South 11.5 mph 17.3 mph 0.01 in Rain Light Rain
7:15 PM 50.0°F 46.4°F 87% 30.22 in 0.8 miles South 10.4 mph 19.6 mph 0.01 in Rain Light Rain
7:32 PM 50.0°F 46.4°F 87% 30.22 in 1.0 miles South 13.8 mph 19.6 mph 0.03 in Rain Rain
7:53 PM 50.0°F 46.9°F 89% 30.23 in 2.5 miles South 11.5 mph 20.7 mph 0.05 in Rain Light Rain
8:01 PM 50.0°F 46.4°F 87% 30.23 in 1.2 miles SSW 9.2 mph 23.0 mph 0.00 in Rain Light Rain
8:27 PM 50.0°F 46.4°F 87% 30.23 in 1.0 miles South 11.5 mph 24.2 mph 0.03 in Rain Light Rain
8:53 PM 50.0°F 46.9°F 89% 30.23 in 0.8 miles South 10.4 mph 25.3 mph 0.05 in Rain Light Rain
9:12 PM 50.0°F 46.4°F 87% 30.22 in 1.0 miles South 9.2 mph 23.0 mph 0.06 in Rain Rain
9:25 PM 50.0°F 46.4°F 87% 30.21 in 1.5 miles South 9.2 mph 19.6 mph 0.09 in Rain Rain
9:49 PM 50.0°F 46.4°F 87% 30.23 in 1.0 miles South 12.7 mph 26.5 mph 0.16 in Rain Rain
9:53 PM 50.0°F 46.9°F 89% 30.24 in 1.0 miles South 12.7 mph 26.5 mph 0.18 in Rain Heavy Rain
10:42 PM 50.0°F 46.4°F 87% 30.25 in 1.5 miles South 9.2 mph 21.9 mph 0.31 in Rain Rain
10:53 PM 50.0°F 46.9°F 89% 30.25 in 1.8 miles South 13.8 mph 23.0 mph 0.35 in Rain Rain
11:09 PM 50.0°F 46.4°F 87% 30.25 in 1.2 miles South 9.2 mph 20.7 mph 0.06 in Rain Rain
11:18 PM 50.0°F 46.4°F 87% 30.25 in 1.5 miles South 11.5 mph 24.2 mph N/A Rain Rain
11:43 PM 50.0°F 46.4°F 87% 30.25 in 1.2 miles South 13.8 mph 23.0 mph 0.17 in Rain Light Rain
11:50 PM 50.0°F 46.4°F 87% 30.25 in 1.5 miles South 12.7 mph 23.0 mph 0.18 in Rain Light Rain
11:53 PM 50.0°F 46.9°F 89% 30.26 in 1.5 miles South 10.4 mph 21.9 mph 0.19 in Rain Light Rain
Moon Phase
Feb. 28 Mar. 04 Mar. 11 Mar. 19 Mar. 27
Sunrise:07:00 AM (PST) Moon Rise:09:55 PM (PST)2/28
Sunset:06:01 PM (PST) Moon Set:07:55 AM (PST)2/28

Copyright © 2014 The Weather Underground, Inc.